Location: Dampvalley
(47.9094°N, 6.1967°E)
Time: 21:40:20
(UTC+00:00)

H-2A R/B - Pass Details

Date: 05 March 2021
Orbit: 578 x 654 km, 98.5° (Epoch: 22 April)

Event Time Altitude Azimuth Distance (km) Brightness Sun altitude
Rises 04:07:32 0° 163° (SSE) 2,875 5.5 -20.9°
Reaches altitude 10° 04:09:43 10° 163° (SSE) 1,963 4.6 -20.6°
Maximum altitude 04:13:59 88° 74° (ENE) 609 1.9 -19.9°
Drops below altitude 10° 04:18:11 10° 346° (NNW) 1,935 4.6 -19.2°
Sets 04:20:20 0° 346° (NNW) 2,832 5.4 -18.8°
